Theta_e
334 334 334 333 331 329 327 327 329 325 311 307 306 305 307 311 314 314 316 316 317 314 306 305 304 304 303 303 303 302 302 302 302 302 302 302 302 302 303 303 303 303 303
333 333 334 333 332 331 328 328 330 329 316 306 305 305 307 311 314 315 315 317 318 314 306 307 305 303 302 302 302 302 302 302 302 302 302 302 302 302 302 303 303 303 304
333 332 333 333 334 332 331 330 330 329 320 305 305 305 309 313 315 316 317 317 318 316 309 309 307 304 303 302 302 302 302 302 302 302 302 302 302 302 302 303 303 304 304
336 335 334 333 333 333 334 330 331 330 328 308 305 307 312 315 317 319 319 318 318 317 311 313 311 307 303 303 302 302 302 302 301 302 302 302 302 302 302 303 303 303 303
337 337 336 336 335 334 334 333 331 331 330 318 306 307 310 313 316 318 318 318 318 317 312 312 312 311 309 306 307 304 302 302 302 301 301 301 302 302 303 303 303 303 303
337 336 336 335 334 334 334 334 333 332 331 330 311 310 310 311 315 317 317 318 318 315 311 311 310 310 310 310 309 309 306 303 303 302 301 301 302 302 302 302 302 301 300
333 334 333 334 334 333 332 333 333 332 331 327 311 310 312 314 317 317 318 318 317 314 310 310 309 307 307 308 309 309 309 308 306 304 302 301 301 302 301 301 299 298 297
330 329 331 331 332 332 332 331 331 332 331 325 318 312 314 315 317 317 317 317 317 314 311 309 308 307 304 303 303 307 308 308 306 305 303 301 301 301 299 297 297 297 296
315 318 318 322 323 326 329 329 330 329 328 328 326 315 313 314 315 315 315 315 315 314 312 310 307 305 303 302 301 301 304 306 306 304 303 301 300 298 296 296 296 296 296
311 310 309 308 306 306 308 317 324 327 328 323 317 313 315 315 312 311 312 312 312 311 310 308 306 304 301 299 300 300 303 303 304 302 300 300 298 297 296 296 296 295 295
309 308 308 307 307 305 304 306 313 320 321 321 321 318 314 313 314 311 309 308 310 309 308 307 306 301 300 300 300 299 299 302 302 301 300 298 297 296 295 295 295 295 295
307 306 306 306 306 305 305 305 307 311 314 317 316 316 314 311 312 313 310 307 309 308 308 306 305 302 302 302 300 299 299 300 300 300 299 296 296 296 295 295 294 294 294
308 308 307 307 303 305 307 307 306 306 309 314 315 315 315 313 312 311 310 308 305 304 303 305 305 303 303 301 300 299 298 298 299 299 297 294 294 294 294 294 293 293 293
303 303 302 303 303 310 309 307 306 306 305 306 315 313 315 314 314 312 310 308 305 302 302 301 302 303 303 301 300 299 298 298 299 298 293 293 293 293 293 293 292 292 292
303 304 304 309 309 308 307 306 305 306 307 306 307 312 311 313 313 311 311 309 307 301 300 300 301 302 302 301 300 299 297 297 299 296 293 292 292 293 293 292 291 291 291
304 304 304 306 306 306 305 304 304 304 304 307 308 310 313 312 312 312 310 309 307 307 302 301 300 301 300 300 299 298 297 298 297 293 292 292 292 292 292 292 291 290 291
303 304 305 305 305 304 303 304 304 303 304 305 307 308 311 313 312 310 311 308 306 305 304 300 301 301 299 299 299 298 297 297 295 293 292 292 291 291 292 291 290 290 291
302 303 303 304 303 303 303 303 302 302 302 302 304 305 308 313 312 311 310 308 306 305 303 300 299 300 300 299 299 297 297 296 293 289 292 290 290 290 291 290 290 290 290
301 302 302 302 302 302 300 299 298 298 298 300 303 303 306 309 312 311 310 308 306 305 303 300 300 300 300 299 298 297 297 297 289 289 288 289 289 291 290 290 289 289 289
300 301 301 300 299 298 297 297 297 298 298 300 301 302 303 305 311 310 310 306 305 303 302 299 300 299 299 298 298 297 294 292 288 286 287 287 289 290 289 289 289 289 289
300 299 298 297 296 296 296 297 297 298 299 302 304 306 306 306 308 310 308 305 303 301 299 298 297 297 296 295 295 294 295 287 286 286 286 287 288 289 288 288 288 288 289
298 297 296 296 296 296 296 297 298 299 299 303 304 309 309 306 309 309 309 306 304 302 298 300 298 297 297 297 295 295 294 286 286 286 286 287 288 288 287 287 287 287 287
296 295 295 295 295 295 295 296 297 298 300 301 305 309 308 309 308 307 304 303 302 302 303 302 300 300 300 299 297 295 295 290 290 287 286 287 288 287 287 287 286 286 287
295 295 295 294 294 294 294 295 296 297 299 300 304 306 307 305 304 302 302 301 300 300 301 302 302 302 302 301 300 299 297 292 287 287 287 288 287 287 287 287 287 287 286
295 295 294 294 293 293 293 294 295 297 299 300 301 302 304 303 303 302 300 299 298 299 300 300 300 301 301 300 298 296 294 291 288 287 286 288 288 287 286 287 287 287 285
294 294 293 293 293 292 292 293 294 295 297 298 299 300 301 301 301 301 300 299 300 300 300 299 299 299 299 299 299 299 298 294 290 287 288 286 287 287 286 287 287 286 286
Wind_Speed
29 28 28 28 27 28 25 22 21 21 21 23 26 28 28 28 26 25 24 22 19 17 17 15 12 12 12 11 11 9 9 8 8 8 7 6 5 5 5 5 5 5 5
26 27 27 29 29 32 27 23 23 24 24 26 29 30 31 31 30 29 27 24 21 19 19 17 16 15 15 13 12 10 9 9 9 8 6 5 3 3 3 3 3 3 3
24 22 25 26 28 31 32 28 25 27 28 29 32 34 33 33 32 31 29 27 24 22 21 20 19 19 18 16 14 13 12 12 10 9 7 5 4 2 2 1 1 1 1
24 26 27 28 28 28 29 30 30 30 31 32 35 38 35 34 33 32 30 29 27 24 22 20 19 19 19 18 16 15 13 12 11 9 7 6 3 1 1 1 0 0 1
26 31 32 33 35 35 34 34 35 34 35 36 39 42 40 37 36 34 32 31 29 27 25 23 21 19 18 18 16 15 14 11 10 9 8 6 5 3 2 1 1 1 1
26 29 34 34 38 41 43 44 42 41 41 37 42 41 41 40 39 38 36 34 32 30 29 30 27 23 19 16 15 13 13 12 11 10 9 7 6 5 4 3 2 2 2
23 25 28 36 38 39 42 45 48 49 46 46 44 44 42 41 41 41 39 37 35 34 33 32 31 28 26 21 18 14 12 13 12 11 11 9 7 6 4 3 1 0 1
25 26 27 28 35 44 45 42 48 52 50 54 48 39 30 39 42 44 44 43 42 39 37 36 35 32 27 24 22 19 16 15 14 13 12 10 8 7 5 3 1 0 1
20 24 28 30 31 31 42 42 48 43 52 59 56 43 21 25 42 47 48 47 43 42 41 40 38 32 28 27 25 23 23 20 16 15 12 10 9 7 5 4 2 1 2
29 31 31 30 30 31 34 35 47 51 59 52 53 56 47 29 24 21 49 49 47 45 45 43 39 37 33 28 26 23 23 23 20 17 14 11 10 9 7 5 3 2 2
35 35 34 34 36 36 35 35 34 38 49 55 57 63 68 48 37 29 29 47 47 47 46 44 41 40 34 31 27 25 24 24 21 18 16 13 12 10 8 5 3 2 2
40 43 44 46 46 45 42 39 35 36 40 48 52 53 52 53 49 43 29 44 56 56 52 48 43 43 39 32 30 27 27 28 25 23 18 15 13 10 8 5 3 3 2
47 47 51 54 53 48 46 43 43 40 39 44 48 55 56 55 48 46 38 34 39 31 36 51 46 45 37 35 32 27 27 24 25 25 19 18 16 12 8 6 5 3 2
49 49 47 44 46 45 45 47 47 47 46 46 52 52 61 64 63 58 50 35 30 31 35 35 51 46 39 38 33 28 27 27 25 26 21 20 18 13 10 7 5 4 2
47 43 40 38 40 46 49 50 49 46 48 47 53 55 56 60 60 62 55 48 49 26 37 42 49 52 45 42 38 33 31 28 27 25 21 19 17 14 11 8 6 4 2
41 39 38 42 46 48 49 53 55 55 50 51 46 51 55 58 57 56 60 52 54 46 34 46 47 50 48 42 35 30 28 29 26 25 25 22 18 15 11 9 7 5 4
40 40 40 42 45 49 52 55 57 54 49 48 50 52 54 57 55 52 49 56 56 52 40 37 49 49 48 42 38 35 35 33 29 29 25 22 19 15 13 11 9 7 4
40 40 42 47 48 52 56 56 55 52 52 52 55 54 55 53 64 60 60 58 56 54 46 46 47 53 51 46 42 39 37 33 31 27 26 23 20 16 15 13 10 8 5
37 40 43 47 49 50 48 50 51 50 51 53 55 56 55 53 61 59 63 57 55 54 54 54 51 50 55 49 43 38 35 34 28 29 26 25 20 19 17 15 12 9 5
42 45 46 45 42 44 46 43 42 44 45 47 51 58 59 57 58 63 57 59 57 56 54 51 50 57 58 52 45 44 40 32 34 30 28 24 24 21 18 15 12 9 5
41 40 38 38 42 36 35 34 35 38 37 37 43 50 58 58 57 67 63 57 61 58 56 55 55 60 59 56 51 46 40 39 33 31 29 28 26 22 18 15 11 8 4
34 35 35 33 29 29 29 27 27 27 31 28 38 32 39 49 54 62 64 67 71 68 59 57 55 62 61 58 53 49 44 45 38 33 31 28 25 22 16 12 10 7 5
32 30 27 24 23 23 24 24 27 26 30 28 23 20 31 44 59 61 59 62 59 63 62 56 54 57 59 60 54 50 45 44 43 37 34 29 26 22 17 13 10 6 4
26 23 21 21 20 20 22 22 25 25 18 13 13 18 31 38 51 57 53 54 49 47 45 46 47 47 45 45 48 46 46 43 35 28 35 30 28 25 20 15 10 6 4
20 19 19 19 19 18 18 17 17 15 7 6 6 21 30 40 51 53 47 47 49 46 46 31 24 23 27 35 48 46 44 45 37 32 34 26 28 26 22 17 13 9 6
18 17 18 18 18 17 17 16 15 14 11 10 17 23 27 38 41 45 50 51 50 44 35 22 18 20 28 33 35 36 36 42 40 27 29 32 25 26 21 20 17 14 10
Wind_Direction
246 248 252 254 258 262 256 251 249 245 237 233 231 231 230 232 234 237 241 249 257 263 237 221 209 200 200 202 202 198 196 193 191 194 202 213 224 238 252 261 274 278 277
250 248 252 260 265 269 262 259 259 252 240 234 234 231 230 232 232 234 238 246 250 256 245 219 201 196 200 202 203 206 200 197 195 197 203 207 220 242 264 272 285 295 314
268 265 260 264 270 266 272 271 260 252 242 232 231 231 230 231 232 232 234 239 243 247 244 214 205 194 195 202 202 204 202 200 201 203 202 203 212 230 257 297 7 46 45
267 268 271 272 270 270 267 268 262 259 253 239 231 231 232 231 232 233 235 239 240 237 228 209 205 200 194 194 197 201 200 204 204 202 201 205 215 238 261 307 352 337 9
274 272 269 270 269 263 265 261 258 255 250 242 233 231 232 233 233 233 232 237 239 238 226 208 201 199 192 187 186 191 198 196 200 203 206 203 200 197 199 213 245 303 327
281 280 278 277 274 268 258 257 256 251 249 247 235 232 234 233 232 233 232 232 233 232 225 220 208 199 192 186 178 181 185 189 191 198 201 205 202 198 202 213 246 282 319
290 289 286 279 281 280 273 267 262 252 246 239 231 230 230 229 228 227 227 227 229 229 226 224 222 210 200 184 178 179 186 175 186 190 198 206 207 211 219 236 235 307 347
281 282 285 288 286 274 273 273 269 259 249 241 231 231 213 219 221 224 226 225 225 224 223 224 222 218 216 208 200 181 189 190 184 187 200 204 208 210 209 203 217 28 17
287 280 285 282 283 290 273 276 265 269 250 245 236 212 211 219 214 217 221 224 224 225 224 224 224 223 218 214 213 225 196 194 182 196 199 204 206 199 189 183 201 282 317
294 294 293 290 289 290 290 284 268 267 261 242 232 220 227 210 203 205 215 218 221 223 223 221 221 221 215 218 216 211 204 197 191 205 205 202 189 188 188 201 219 259 291
296 296 295 294 293 295 287 281 273 270 257 248 245 229 221 228 218 211 201 208 216 222 224 221 218 214 208 207 217 212 209 205 195 199 203 196 183 184 194 205 225 232 236
291 292 293 296 298 294 290 286 283 279 273 257 239 233 228 218 218 213 221 204 208 213 215 217 213 214 207 214 203 206 209 201 199 202 197 187 185 181 196 205 213 214 227
288 284 285 287 289 287 287 284 284 282 273 267 261 246 240 229 226 230 222 213 197 205 204 217 213 214 211 206 204 203 204 201 209 207 206 197 195 191 210 211 208 212 214
297 292 285 282 280 279 283 290 290 285 278 267 260 251 241 232 232 232 227 212 193 195 198 203 213 212 208 209 204 203 202 203 202 210 206 206 195 207 214 212 204 208 194
306 297 285 279 278 279 283 287 288 283 275 273 260 259 244 240 230 228 224 224 211 184 193 205 205 209 204 202 201 199 201 199 207 204 203 204 206 210 210 196 206 203 195
302 297 288 281 281 281 283 287 288 286 276 268 264 253 247 242 238 235 220 226 213 210 197 206 201 206 200 197 195 196 198 208 200 200 202 203 204 204 196 197 199 197 198
294 290 288 287 287 288 287 286 285 282 271 262 255 258 250 239 225 218 229 223 209 204 201 201 208 204 196 195 191 194 201 201 195 203 199 207 204 192 197 189 193 197 203
292 293 292 293 292 290 289 287 283 278 271 263 262 258 251 239 234 230 230 215 207 202 195 191 194 193 194 197 195 189 194 195 196 198 199 200 195 190 193 188 188 191 201
299 297 297 298 297 292 290 287 285 280 275 268 260 253 248 242 226 218 217 221 203 201 198 195 192 195 194 197 193 194 195 194 190 197 191 195 186 195 190 189 187 185 184
303 302 300 296 296 293 291 288 285 284 279 273 269 261 250 239 229 215 219 205 197 194 191 189 191 191 193 192 196 190 187 186 187 186 189 180 189 189 187 186 185 182 185
304 303 300 298 296 295 295 297 296 292 282 278 279 267 254 242 228 215 205 196 187 186 185 181 177 183 186 186 190 191 185 181 182 187 180 181 184 182 182 181 178 175 180
309 306 304 301 301 305 307 310 310 303 303 286 286 274 251 231 222 202 209 200 195 192 181 187 184 183 186 191 191 190 186 179 175 190 189 184 185 181 179 176 174 176 183
317 313 309 309 313 318 326 328 328 307 290 296 252 239 222 209 198 193 186 184 184 195 201 191 190 189 187 194 193 191 190 188 191 190 188 186 185 183 188 192 189 188 189
323 321 322 323 329 336 333 328 324 312 279 250 224 203 188 175 174 172 176 177 181 192 201 194 180 183 193 202 205 199 191 187 192 188 190 184 188 190 195 201 206 210 214
331 336 336 343 346 345 338 337 317 298 252 183 210 176 173 172 176 175 172 171 176 181 177 177 185 209 226 215 195 195 191 188 183 185 193 196 195 195 202 207 213 228 248
342 346 352 356 3 1 1 355 341 324 273 249 173 158 172 175 181 186 179 177 175 175 181 190 194 192 191 193 200 205 203 197 191 185 197 197 199 197 204 214 220 230 245